| time (UTC) | temp F | wind direction | speed MPH | gust MPH | rain 1hr in | rain 24hr in | rain mn in | humidity % | barometer mb |
| 20260906170422 | 91 | 140 | 6.0 | 11.0 | 0.00 | 0.00 | 0.00 | 68 | 1015.3 |
| 20260906165913 | 91 | 115 | 6.0 | 11.0 | 0.00 | 0.00 | 0.00 | 70 | 1015.4 |
| 20260906165404 | 91 | 76 | 5.0 | 11.0 | 0.00 | 0.00 | 0.00 | 72 | 1015.5 |
| 20260906164907 | 90 | 121 | 5.0 | 11.0 | 0.00 | 0.00 | 0.00 | 75 | 1015.5 |
| 20260906163904 | 89 | 75 | 7.0 | 11.0 | 0.00 | 0.00 | 0.00 | 75 | 1015.5 |
| 20260906163404 | 89 | 78 | 7.0 | 11.0 | 0.00 | 0.00 | 0.00 | 75 | 1015.5 |
| 20260906162902 | 89 | 89 | 6.0 | 11.0 | 0.00 | 0.00 | 0.00 | 75 | 1015.6 |
| 20260906162404 | 88 | 90 | 6.0 | 11.0 | 0.00 | 0.00 | 0.00 | 75 | 1015.6 |
| 20260906161855 | 88 | 92 | 6.0 | 11.0 | 0.00 | 0.00 | 0.00 | 77 | 1015.6 |
| 20260906161341 | 88 | 68 | 6.0 | 9.0 | 0.00 | 0.00 | 0.00 | 77 | 1015.7 |
| 20260906160321 | 87 | 80 | 6.0 | 11.0 | 0.00 | 0.00 | 0.00 | 79 | 1015.7 |
| 20260906160059 | 86 | 115 | 6.0 | 11.0 | 0.00 | 0.00 | 0.00 | 78 | 1013.4 |
| 20260906155306 | 86 | 109 | 7.0 | 10.0 | 0.00 | 0.00 | 0.00 | 78 | 1015.5 |
| 20260906154751 | 86 | 68 | 6.0 | 10.0 | 0.00 | 0.00 | 0.00 | 79 | 1015.6 |
| 20260906154529 | 86 | 84 | 6.0 | 10.0 | 0.00 | 0.00 | 0.00 | 80 | 1013.2 |
| 20260906154242 | 86 | 72 | 6.0 | 11.0 | 0.00 | 0.00 | 0.00 | 80 | 1015.6 |
| 20260906153731 | 86 | 109 | 6.0 | 11.0 | 0.00 | 0.00 | 0.00 | 80 | 1015.6 |
| 20260906153221 | 85 | 102 | 6.0 | 10.0 | 0.00 | 0.00 | 0.00 | 81 | 1015.5 |
| 20260906152207 | 85 | 82 | 5.0 | 8.0 | 0.00 | 0.00 | 0.00 | 82 | 1015.6 |
| 20260906151502 | 84 | 90 | 5.0 | 8.0 | 0.00 | 0.00 | 0.00 | 83 | 1013.2 |
| 20260906151143 | 84 | 126 | 6.0 | 10.0 | 0.00 | 0.00 | 0.00 | 83 | 1015.4 |
| 20260906150637 | 83 | 76 | 7.0 | 11.0 | 0.00 | 0.00 | 0.00 | 84 | 1015.4 |
| 20260906150135 | 83 | 94 | 7.0 | 11.0 | 0.00 | 0.00 | 0.00 | 84 | 1015.4 |
| 20260906145132 | 83 | 90 | 6.0 | 10.0 | 0.00 | 0.00 | 0.00 | 85 | 1015.5 |
| 20260906144634 | 82 | 109 | 6.0 | 10.0 | 0.00 | 0.00 | 0.00 | 86 | 1015.6 |
| 20260906144132 | 82 | 67 | 7.0 | 10.0 | 0.00 | 0.00 | 0.00 | 86 | 1015.7 |
| 20260906143634 | 82 | 107 | 6.0 | 10.0 | 0.00 | 0.00 | 0.00 | 87 | 1015.7 |
| 20260906143126 | 81 | 102 | 5.0 | 9.0 | 0.00 | 0.00 | 0.00 | 87 | 1015.7 |
| 20260906142616 | 81 | 78 | 5.0 | 8.0 | 0.00 | 0.00 | 0.00 | 89 | 1015.7 |
| 20260906141551 | 80 | 76 | 5.0 | 9.0 | 0.00 | 0.00 | 0.00 | 89 | 1015.8 |
| 20260906141044 | 80 | 101 | 5.0 | 8.0 | 0.00 | 0.00 | 0.00 | 89 | 1015.8 |
| 20260906140532 | 80 | 75 | 5.0 | 11.0 | 0.00 | 0.00 | 0.00 | 89 | 1015.8 |
| 20260906140022 | 80 | 88 | 6.0 | 11.0 | 0.00 | 0.00 | 0.00 | 89 | 1015.8 |
| 20260906135510 | 80 | 73 | 7.0 | 12.0 | 0.00 | 0.00 | 0.00 | 90 | 1015.8 |
| 20260906135005 | 79 | 75 | 7.0 | 12.0 | 0.00 | 0.00 | 0.00 | 90 | 1015.8 |
| 20260906133941 | 79 | 80 | 7.0 | 9.0 | 0.00 | 0.00 | 0.00 | 91 | 1015.7 |
| 20260906133436 | 78 | 88 | 6.0 | 11.0 | 0.00 | 0.00 | 0.00 | 92 | 1015.6 |
| 20260906132927 | 78 | 69 | 6.0 | 9.0 | 0.00 | 0.00 | 0.00 | 92 | 1015.6 |
| 20260906132424 | 78 | 88 | 5.0 | 11.0 | 0.00 | 0.00 | 0.00 | 93 | 1015.6 |
| 20260906131912 | 77 | 62 | 5.0 | 11.0 | 0.00 | 0.00 | 0.00 | 93 | 1015.5 |
| 20260906131649 | 77 | 90 | 3.0 | 8.0 | 0.00 | 0.00 | 0.00 | 93 | 1013.3 |
| 20260906131400 | 77 | 78 | 5.0 | 9.0 | 0.00 | 0.00 | 0.00 | 93 | 1015.4 |
| 20260906130849 | 77 | 89 | 5.0 | 9.0 | 0.00 | 0.00 | 0.00 | 93 | 1015.4 |
| 20260906130339 | 77 | 86 | 5.0 | 8.0 | 0.00 | 0.00 | 0.00 | 94 | 1015.4 |
| 20260906130133 | 76 | 81 | 3.0 | 8.0 | 0.00 | 0.00 | 0.00 | 94 | 1013.1 |
| 20260906125833 | 76 | 76 | 5.0 | 7.0 | 0.00 | 0.00 | 0.00 | 94 | 1015.4 |
| 20260906124833 | 76 | 76 | 5.0 | 9.0 | 0.00 | 0.00 | 0.00 | 94 | 1015.2 |
| 20260906124611 | 75 | 77 | 4.0 | 9.0 | 0.00 | 0.00 | 0.00 | 94 | 1013.0 |
| 20260906124330 | 76 | 64 | 4.0 | 9.0 | 0.00 | 0.00 | 0.00 | 94 | 1015.3 |
| 20260906123330 | 75 | 76 | 3.0 | 8.0 | 0.00 | 0.00 | 0.00 | 94 | 1015.2 |
| 20260906123110 | 75 | 92 | 4.0 | 8.0 | 0.00 | 0.00 | 0.00 | 94 | 1012.9 |
| 20260906122842 | 75 | 78 | 2.0 | 7.0 | 0.00 | 0.00 | 0.00 | 94 | 1015.1 |
| 20260906122330 | 75 | 77 | 2.0 | 7.0 | 0.00 | 0.00 | 0.00 | 94 | 1015.1 |
| 20260906121828 | 75 | 64 | 3.0 | 6.0 | 0.00 | 0.00 | 0.00 | 94 | 1015.0 |
| 20260906121616 | 74 | 61 | 1.0 | 6.0 | 0.00 | 0.00 | 0.00 | 93 | 1012.8 |
| 20260906121333 | 75 | 57 | 3.0 | 6.0 | 0.00 | 0.00 | 0.00 | 93 | 1015.0 |
| 20260906120324 | 75 | 65 | 2.0 | 6.0 | 0.00 | 0.00 | 0.00 | 93 | 1014.9 |
| 20260906120122 | 74 | 86 | 0.0 | 5.0 | 0.00 | 0.00 | 0.00 | 93 | 1012.6 |
| 20260906114815 | 75 | 88 | 3.0 | 6.0 | 0.00 | 0.00 | 0.00 | 93 | 1014.6 |
| 20260906114547 | 74 | 76 | 2.0 | 6.0 | 0.00 | 0.00 | 0.00 | 93 | 1012.5 |
| 20260906114317 | 75 | 77 | 3.0 | 6.0 | 0.00 | 0.00 | 0.00 | 93 | 1014.6 |
| 20260906113815 | 75 | 79 | 3.0 | 6.0 | 0.00 | 0.00 | 0.00 | 93 | 1014.6 |
| 20260906113326 | 75 | 74 | 2.0 | 6.0 | 0.00 | 0.00 | 0.00 | 92 | 1014.6 |
| 20260906113039 | 74 | 82 | 2.0 | 5.0 | 0.00 | 0.00 | 0.00 | 92 | 1012.5 |
| 20260906112811 | 75 | 81 | 2.0 | 5.0 | 0.00 | 0.00 | 0.00 | 92 | 1014.6 |
| 20260906112320 | 75 | 88 | 1.0 | 5.0 | 0.00 | 0.00 | 0.00 | 92 | 1014.5 |
| 20260906111806 | 75 | 88 | 1.0 | 4.0 | 0.00 | 0.00 | 0.00 | 92 | 1014.4 |
| 20260906111545 | 74 | 88 | 0.0 | 4.0 | 0.00 | 0.00 | 0.00 | 92 | 1012.3 |
| 20260906111316 | 75 | 88 | 1.0 | 4.0 | 0.00 | 0.00 | 0.00 | 92 | 1014.4 |
| 20260906110802 | 75 | 88 | 2.0 | 6.0 | 0.00 | 0.00 | 0.00 | 92 | 1014.2 |
| 20260906110300 | 75 | 88 | 2.0 | 6.0 | 0.00 | 0.00 | 0.00 | 92 | 1014.2 |
| 20260906110045 | 74 | 88 | 2.0 | 6.0 | 0.00 | 0.00 | 0.00 | 92 | 1012.0 |
| 20260906105804 | 75 | 99 | 3.0 | 6.0 | 0.00 | 0.00 | 0.00 | 92 | 1014.1 |
| 20260906105257 | 75 | 78 | 3.0 | 7.0 | 0.00 | 0.00 | 0.00 | 92 | 1014.1 |
| 20260906104742 | 75 | 78 | 2.0 | 7.0 | 0.00 | 0.00 | 0.00 | 92 | 1014.1 |
| 20260906104512 | 74 | 79 | 2.0 | 6.0 | 0.00 | 0.00 | 0.00 | 92 | 1011.9 |
| 20260906103719 | 75 | 84 | 1.0 | 5.0 | 0.00 | 0.00 | 0.00 | 91 | 1014.0 |
| 20260906103212 | 75 | 75 | 1.0 | 5.0 | 0.00 | 0.00 | 0.00 | 91 | 1014.0 |
| 20260906102701 | 75 | 75 | 1.0 | 5.0 | 0.00 | 0.00 | 0.00 | 91 | 1014.0 |
| 20260906102153 | 75 | 75 | 2.0 | 6.0 | 0.00 | 0.00 | 0.00 | 91 | 1014.0 |
| 20260906101643 | 75 | 67 | 2.0 | 6.0 | 0.00 | 0.00 | 0.00 | 91 | 1014.0 |
| 20260906101138 | 75 | 74 | 2.0 | 5.0 | 0.00 | 0.00 | 0.00 | 90 | 1014.0 |
| 20260906100626 | 75 | 75 | 2.0 | 5.0 | 0.00 | 0.00 | 0.00 | 90 | 1014.0 |
| 20260906100110 | 75 | 75 | 2.0 | 6.0 | 0.00 | 0.00 | 0.00 | 90 | 1013.9 |
| 20260906095046 | 76 | 71 | 2.0 | 6.0 | 0.00 | 0.00 | 0.00 | 90 | 1014.0 |
| 20260906094024 | 76 | 86 | 3.0 | 6.0 | 0.00 | 0.00 | 0.00 | 90 | 1013.9 |
| 20260906093510 | 76 | 78 | 3.0 | 6.0 | 0.00 | 0.00 | 0.00 | 90 | 1013.9 |
| 20260906093001 | 76 | 78 | 3.0 | 6.0 | 0.00 | 0.00 | 0.00 | 90 | 1013.9 |
| 20260906091946 | 76 | 86 | 3.0 | 6.0 | 0.00 | 0.00 | 0.00 | 89 | 1013.8 |
| 20260906091437 | 76 | 78 | 3.0 | 7.0 | 0.00 | 0.00 | 0.00 | 89 | 1013.7 |
| 20260906090933 | 76 | 81 | 3.0 | 7.0 | 0.00 | 0.00 | 0.00 | 89 | 1013.7 |
| 20260906090430 | 76 | 73 | 3.0 | 7.0 | 0.00 | 0.00 | 0.00 | 89 | 1013.7 |
| 20260906084856 | 76 | 79 | 4.0 | 6.0 | 0.00 | 0.00 | 0.00 | 88 | 1013.6 |
| 20260906084354 | 76 | 78 | 3.0 | 6.0 | 0.00 | 0.00 | 0.00 | 88 | 1013.6 |
| 20260906083841 | 76 | 81 | 3.0 | 7.0 | 0.00 | 0.00 | 0.00 | 88 | 1013.6 |
| 20260906083332 | 76 | 82 | 4.0 | 7.0 | 0.00 | 0.00 | 0.00 | 87 | 1013.6 |
| 20260906082820 | 76 | 69 | 3.0 | 7.0 | 0.00 | 0.00 | 0.00 | 87 | 1013.6 |
| 20260906082313 | 76 | 76 | 3.0 | 6.0 | 0.00 | 0.00 | 0.00 | 87 | 1013.5 |
| 20260906081257 | 76 | 77 | 3.0 | 7.0 | 0.00 | 0.00 | 0.00 | 87 | 1013.5 |
| 20260906080752 | 76 | 64 | 3.0 | 7.0 | 0.00 | 0.00 | 0.00 | 87 | 1013.6 |
| 20260906080238 | 77 | 67 | 3.0 | 7.0 | 0.00 | 0.00 | 0.00 | 86 | 1013.6 |
| 20260906080155 | 76 | 67 | 3.0 | 7.0 | 0.00 | 0.00 | 0.00 | 86 | 1011.4 |
| 20260906075727 | 77 | 71 | 3.0 | 7.0 | 0.00 | 0.00 | 0.00 | 86 | 1013.5 |
| 20260906075218 | 77 | 77 | 3.0 | 7.0 | 0.00 | 0.00 | 0.00 | 86 | 1013.5 |
| 20260906074649 | 76 | 69 | 2.0 | 7.0 | 0.00 | 0.00 | 0.00 | 86 | 1011.2 |
| 20260906074159 | 77 | 63 | 3.0 | 7.0 | 0.00 | 0.00 | 0.00 | 86 | 1013.5 |
| 20260906073148 | 77 | 54 | 4.0 | 7.0 | 0.00 | 0.00 | 0.00 | 85 | 1013.4 |
| 20260906073144 | 76 | 64 | 3.0 | 7.0 | 0.00 | 0.00 | 0.00 | 85 | 1011.2 |
| 20260906072639 | 77 | 68 | 4.0 | 8.0 | 0.00 | 0.00 | 0.00 | 85 | 1013.4 |
| 20260906072128 | 77 | 67 | 4.0 | 8.0 | 0.00 | 0.00 | 0.00 | 85 | 1013.5 |
| 20260906071620 | 76 | 66 | 4.0 | 8.0 | 0.00 | 0.00 | 0.00 | 85 | 1011.3 |
| 20260906071111 | 77 | 74 | 4.0 | 8.0 | 0.00 | 0.00 | 0.00 | 85 | 1013.5 |
| 20260906070602 | 77 | 82 | 4.0 | 7.0 | 0.00 | 0.00 | 0.00 | 85 | 1013.5 |
| 20260906070104 | 77 | 70 | 3.0 | 6.0 | 0.00 | 0.00 | 0.00 | 84 | 1013.6 |
| 20260906070049 | 76 | 70 | 3.0 | 6.0 | 0.00 | 0.00 | 0.00 | 84 | 1011.5 |
| 20260906065031 | 77 | 71 | 3.0 | 7.0 | 0.00 | 0.00 | 0.00 | 84 | 1013.7 |
| 20260906064525 | 77 | 69 | 3.0 | 6.0 | 0.00 | 0.00 | 0.00 | 84 | 1013.8 |
| 20260906063509 | 77 | 80 | 2.0 | 6.0 | 0.00 | 0.00 | 0.00 | 83 | 1013.9 |
| 20260906063001 | 77 | 64 | 3.0 | 6.0 | 0.00 | 0.00 | 0.00 | 83 | 1013.8 |
| 20260906062452 | 77 | 51 | 3.0 | 6.0 | 0.00 | 0.00 | 0.00 | 83 | 1013.9 |
| 20260906061438 | 77 | 66 | 5.0 | 9.0 | 0.00 | 0.00 | 0.00 | 83 | 1014.0 |
| 20260906060926 | 77 | 55 | 4.0 | 9.0 | 0.00 | 0.00 | 0.00 | 83 | 1014.0 |
| 20260906060417 | 77 | 51 | 3.0 | 6.0 | 0.00 | 0.00 | 0.00 | 83 | 1014.1 |
| 20260906055857 | 78 | 57 | 2.0 | 5.0 | 0.00 | 0.00 | 0.00 | 83 | 1014.1 |
| 20260906055347 | 78 | 58 | 2.0 | 5.0 | 0.00 | 0.00 | 0.00 | 83 | 1014.1 |
| 20260906054838 | 78 | 67 | 1.0 | 4.0 | 0.00 | 0.00 | 0.00 | 83 | 1014.1 |
| 20260906053819 | 78 | 67 | 1.0 | 4.0 | 0.00 | 0.00 | 0.00 | 82 | 1014.1 |
| 20260906053304 | 78 | 67 | 0.0 | 4.0 | 0.00 | 0.00 | 0.00 | 82 | 1014.0 |
| 20260906052756 | 78 | 67 | 1.0 | 4.0 | 0.00 | 0.00 | 0.00 | 82 | 1014.0 |
| 20260906052250 | 78 | 67 | 1.0 | 4.0 | 0.00 | 0.00 | 0.00 | 82 | 1014.0 |
| 20260906051754 | 78 | 67 | 1.0 | 4.0 | 0.00 | 0.00 | 0.00 | 82 | 1014.0 |
| 20260906051245 | 78 | 68 | 1.0 | 4.0 | 0.00 | 0.00 | 0.00 | 82 | 1014.0 |
| 20260906050724 | 78 | 68 | 1.0 | 4.0 | 0.00 | 0.00 | 0.00 | 81 | 1013.9 |
| 20260906050217 | 79 | 68 | 1.0 | 4.0 | 0.00 | 0.00 | 0.00 | 81 | 1013.9 |
| 20260906045706 | 79 | 84 | 1.0 | 2.0 | 0.00 | 0.00 | 0.00 | 81 | 1013.9 |
| 20260906044648 | 79 | 84 | 2.0 | 5.0 | 0.00 | 0.00 | 0.00 | 81 | 1013.9 |
| 20260906044133 | 79 | 84 | 1.0 | 5.0 | 0.00 | 0.00 | 0.00 | 81 | 1013.9 |
| 20260906043121 | 79 | 84 | 0.0 | 4.0 | 0.00 | 0.00 | 0.00 | 81 | 1013.8 |
| 20260906042608 | 79 | 84 | 0.0 | 4.0 | 0.00 | 0.00 | 0.00 | 81 | 1013.8 |
| 20260906042114 | 79 | 84 | 1.0 | 4.0 | 0.00 | 0.00 | 0.00 | 81 | 1013.8 |
| 20260906041041 | 80 | 84 | 1.0 | 5.0 | 0.00 | 0.00 | 0.00 | 81 | 1013.7 |
| 20260906040523 | 80 | 84 | 2.0 | 5.0 | 0.00 | 0.00 | 0.00 | 81 | 1013.6 |
| 20260906040012 | 80 | 69 | 2.0 | 5.0 | 0.00 | 0.00 | 0.00 | 81 | 1013.6 |
| 20260906035502 | 80 | 69 | 2.0 | 6.0 | 0.00 | 0.00 | 0.00 | 81 | 1013.6 |
| 20260906034958 | 80 | 82 | 2.0 | 6.0 | 0.00 | 0.00 | 0.00 | 80 | 1013.5 |
| 20260906034444 | 80 | 82 | 2.0 | 5.0 | 0.00 | 0.00 | 0.00 | 80 | 1013.4 |
| 20260906033936 | 80 | 74 | 2.0 | 6.0 | 0.00 | 0.00 | 0.00 | 80 | 1013.3 |
| 20260906033436 | 80 | 83 | 2.0 | 5.0 | 0.00 | 0.00 | 0.00 | 80 | 1013.2 |
| 20260906033157 | 80 | 77 | 2.0 | 5.0 | 0.00 | 0.00 | 0.00 | 80 | 1011.1 |
| 20260906032409 | 80 | 90 | 1.0 | 6.0 | 0.00 | 0.00 | 0.00 | 79 | 1013.3 |
| 20260906031904 | 81 | 71 | 0.0 | 1.0 | 0.00 | 0.00 | 0.00 | 79 | 1013.2 |
| 20260906031649 | 80 | 72 | 0.0 | 1.0 | 0.00 | 0.00 | 0.00 | 79 | 1011.1 |
| 20260906031340 | 81 | 71 | 0.0 | 1.0 | 0.00 | 0.00 | 0.00 | 79 | 1013.3 |
| 20260906030831 | 81 | 72 | 0.0 | 4.0 | 0.00 | 0.00 | 0.00 | 79 | 1013.3 |
| 20260906030319 | 81 | 71 | 0.0 | 4.0 | 0.00 | 0.00 | 0.00 | 79 | 1013.3 |
| 20260906030136 | 81 | 72 | 0.0 | 4.0 | 0.00 | 0.00 | 0.00 | 79 | 1011.1 |
| 20260906025808 | 81 | 72 | 1.0 | 5.0 | 0.00 | 0.00 | 0.00 | 78 | 1013.1 |
| 20260906025259 | 82 | 71 | 2.0 | 5.0 | 0.00 | 0.00 | 0.00 | 78 | 1013.0 |
| 20260906024640 | 81 | 83 | 1.0 | 5.0 | 0.00 | 0.00 | 0.00 | 78 | 1010.8 |
| 20260906024235 | 82 | 83 | 2.0 | 5.0 | 0.00 | 0.00 | 0.00 | 78 | 1012.9 |
| 20260906023736 | 82 | 83 | 2.0 | 5.0 | 0.00 | 0.00 | 0.00 | 78 | 1012.8 |
| 20260906023214 | 82 | 84 | 3.0 | 5.0 | 0.00 | 0.00 | 0.00 | 77 | 1012.7 |
| 20260906023051 | 82 | 84 | 2.0 | 5.0 | 0.00 | 0.00 | 0.00 | 77 | 1010.6 |
| 20260906022703 | 82 | 78 | 3.0 | 5.0 | 0.00 | 0.00 | 0.00 | 77 | 1012.6 |
| 20260906022158 | 83 | 78 | 3.0 | 5.0 | 0.00 | 0.00 | 0.00 | 77 | 1012.6 |
| 20260906021643 | 83 | 84 | 3.0 | 5.0 | 0.00 | 0.00 | 0.00 | 76 | 1012.5 |
| 20260906021526 | 82 | 84 | 2.0 | 5.0 | 0.00 | 0.00 | 0.00 | 76 | 1010.3 |
| 20260906021142 | 83 | 76 | 4.0 | 6.0 | 0.00 | 0.00 | 0.00 | 76 | 1012.4 |
| 20260906020635 | 83 | 93 | 3.0 | 6.0 | 0.00 | 0.00 | 0.00 | 76 | 1012.4 |
| 20260906015621 | 84 | 83 | 3.0 | 5.0 | 0.00 | 0.00 | 0.00 | 75 | 1012.3 |
| 20260906015124 | 84 | 83 | 2.0 | 5.0 | 0.00 | 0.00 | 0.00 | 74 | 1012.3 |
| 20260906014619 | 84 | 83 | 1.0 | 5.0 | 0.00 | 0.00 | 0.00 | 74 | 1012.3 |
| 20260906014117 | 84 | 92 | 2.0 | 5.0 | 0.00 | 0.00 | 0.00 | 74 | 1012.1 |
| 20260906013112 | 85 | 101 | 0.0 | 4.0 | 0.00 | 0.00 | 0.00 | 73 | 1012.0 |
| 20260906012605 | 85 | 101 | 0.0 | 4.0 | 0.00 | 0.00 | 0.00 | 73 | 1012.0 |
| 20260906012056 | 85 | 101 | 1.0 | 4.0 | 0.00 | 0.00 | 0.00 | 73 | 1012.0 |
| 20260906011044 | 85 | 102 | 3.0 | 5.0 | 0.00 | 0.00 | 0.00 | 73 | 1011.9 |
| 20260906010024 | 87 | 98 | 1.0 | 4.0 | 0.00 | 0.00 | 0.00 | 70 | 1012.0 |
| 20260906005007 | 88 | 83 | 0.0 | 2.0 | 0.00 | 0.00 | 0.00 | 68 | 1011.9 |
| 20260906004500 | 89 | 83 | 0.0 | 2.0 | 0.00 | 0.00 | 0.00 | 67 | 1011.9 |
| 20260906003953 | 89 | 83 | 0.0 | 4.0 | 0.00 | 0.00 | 0.00 | 66 | 1011.9 |
| 20260906003441 | 89 | 83 | 1.0 | 4.0 | 0.00 | 0.00 | 0.00 | 66 | 1011.9 |
| 20260906002934 | 89 | 83 | 2.0 | 4.0 | 0.00 | 0.00 | 0.00 | 65 | 1012.0 |
| 20260906002426 | 90 | 82 | 2.0 | 5.0 | 0.00 | 0.00 | 0.00 | 64 | 1012.0 |
| 20260906001917 | 90 | 81 | 2.0 | 5.0 | 0.00 | 0.00 | 0.00 | 63 | 1011.9 |
| 20260906001406 | 90 | 69 | 3.0 | 7.0 | 0.00 | 0.00 | 0.00 | 63 | 1012.0 |
| 20260906000858 | 91 | 69 | 3.0 | 7.0 | 0.00 | 0.00 | 0.00 | 63 | 1012.0 |
| 20260906000351 | 91 | 64 | 4.0 | 8.0 | 0.00 | 0.00 | 0.00 | 61 | 1012.0 |
| 20260906000145 | 90 | 58 | 3.0 | 8.0 | 0.00 | 0.00 | 0.00 | 61 | 1009.7 |
| 20260905235846 | 91 | 53 | 5.0 | 9.0 | 0.00 | 0.00 | 0.00 | 60 | 1012.0 |
| 20260905235339 | 92 | 65 | 5.0 | 9.0 | 0.00 | 0.00 | 0.00 | 60 | 1011.9 |
| 20260905234827 | 92 | 58 | 5.0 | 10.0 | 0.00 | 0.00 | 0.00 | 60 | 1012.0 |
| 20260905234622 | 92 | 61 | 3.0 | 10.0 | 0.00 | 0.00 | 0.00 | 59 | 1009.7 |
| 20260905234319 | 92 | 58 | 6.0 | 10.0 | 0.00 | 0.00 | 0.00 | 57 | 1011.9 |
| 20260905233817 | 93 | 56 | 4.0 | 9.0 | 0.00 | 0.00 | 0.00 | 57 | 1011.9 |
| 20260905233307 | 94 | 64 | 3.0 | 7.0 | 0.00 | 0.00 | 0.00 | 57 | 1011.9 |
| 20260905233103 | 94 | 84 | 2.0 | 7.0 | 0.00 | 0.00 | 0.00 | 58 | 1009.7 |
| 20260905232758 | 94 | 76 | 4.0 | 7.0 | 0.00 | 0.00 | 0.00 | 56 | 1011.9 |
| 20260905232253 | 94 | 87 | 5.0 | 7.0 | 0.00 | 0.00 | 0.00 | 55 | 1011.8 |
| 20260905231744 | 94 | 76 | 4.0 | 7.0 | 0.00 | 0.00 | 0.00 | 55 | 1011.8 |
| 20260905231541 | 94 | 85 | 4.0 | 7.0 | 0.00 | 0.00 | 0.00 | 55 | 1009.4 |
| 20260905231240 | 94 | 84 | 1.0 | 6.0 | 0.00 | 0.00 | 0.00 | 56 | 1011.7 |
| 20260905230223 | 94 | 101 | 0.0 | 1.0 | 0.00 | 0.00 | 0.00 | 63 | 1011.8 |
| 20260905230038 | 94 | 101 | 0.0 | 1.0 | 0.00 | 0.00 | 0.00 | 61 | 1009.5 |
| 20260905225709 | 94 | 101 | 0.0 | 2.0 | 0.00 | 0.00 | 0.00 | 57 | 1011.7 |
| 20260905225210 | 94 | 101 | 0.0 | 2.0 | 0.00 | 0.00 | 0.00 | 55 | 1011.7 |
| 20260905224659 | 94 | 101 | 0.0 | 2.0 | 0.00 | 0.00 | 0.00 | 56 | 1011.6 |
| 20260905224533 | 94 | 101 | 0.0 | 1.0 | 0.00 | 0.00 | 0.00 | 54 | 1009.3 |
| 20260905224152 | 94 | 101 | 1.0 | 2.0 | 0.00 | 0.00 | 0.00 | 53 | 1011.6 |
| 20260905223644 | 95 | 101 | 1.0 | 4.0 | 0.00 | 0.00 | 0.00 | 53 | 1011.6 |
| 20260905223021 | 94 | 101 | 1.0 | 4.0 | 0.00 | 0.00 | 0.00 | 52 | 1009.3 |
| 20260905222626 | 95 | 101 | 1.0 | 4.0 | 0.00 | 0.00 | 0.00 | 52 | 1011.4 |
| 20260905222116 | 96 | 101 | 1.0 | 4.0 | 0.00 | 0.00 | 0.00 | 53 | 1011.4 |
| 20260905221608 | 96 | 101 | 3.0 | 6.0 | 0.00 | 0.00 | 0.00 | 49 | 1011.4 |
| 20260905221059 | 96 | 115 | 5.0 | 9.0 | 0.00 | 0.00 | 0.00 | 49 | 1011.4 |
| 20260905220556 | 96 | 140 | 6.0 | 9.0 | 0.00 | 0.00 | 0.00 | 49 | 1011.4 |
| 20260905220053 | 97 | 119 | 5.0 | 8.0 | 0.00 | 0.00 | 0.00 | 48 | 1011.4 |
| 20260905215532 | 98 | 126 | 3.0 | 8.0 | 0.00 | 0.00 | 0.00 | 47 | 1011.4 |
| 20260905215025 | 98 | 121 | 1.0 | 6.0 | 0.00 | 0.00 | 0.00 | 46 | 1011.6 |
| 20260905214011 | 98 | 115 | 1.0 | 7.0 | 0.00 | 0.00 | 0.00 | 46 | 1011.7 |
| 20260905213503 | 98 | 101 | 1.0 | 4.0 | 0.00 | 0.00 | 0.00 | 45 | 1011.7 |
| 20260905212958 | 98 | 99 | 1.0 | 4.0 | 0.00 | 0.00 | 0.00 | 46 | 1011.7 |
| 20260905212449 | 97 | 99 | 2.0 | 6.0 | 0.00 | 0.00 | 0.00 | 47 | 1011.8 |
| 20260905211429 | 98 | 112 | 5.0 | 9.0 | 0.00 | 0.00 | 0.00 | 47 | 1011.9 |
| 20260905210919 | 98 | 126 | 4.0 | 9.0 | 0.00 | 0.00 | 0.00 | 46 | 1012.0 |
| 20260905205900 | 98 | 96 | 5.0 | 10.0 | 0.00 | 0.00 | 0.00 | 44 | 1012.2 |
| 20260905205350 | 98 | 107 | 3.0 | 10.0 | 0.00 | 0.00 | 0.00 | 47 | 1012.3 |
| 20260905204841 | 98 | 119 | 3.0 | 8.0 | 0.00 | 0.00 | 0.00 | 46 | 1012.4 |
| 20260905204343 | 98 | 65 | 3.0 | 8.0 | 0.00 | 0.00 | 0.00 | 45 | 1012.6 |
| 20260905203825 | 98 | 90 | 3.0 | 7.0 | 0.00 | 0.00 | 0.00 | 45 | 1012.7 |
| 20260905203311 | 98 | 90 | 5.0 | 7.0 | 0.00 | 0.00 | 0.00 | 43 | 1012.7 |
| 20260905203151 | 98 | 90 | 4.0 | 8.0 | 0.00 | 0.00 | 0.00 | 46 | 1010.5 |
| 20260905202804 | 98 | 106 | 3.0 | 8.0 | 0.00 | 0.00 | 0.00 | 45 | 1012.8 |
| 20260905202255 | 98 | 96 | 3.0 | 8.0 | 0.00 | 0.00 | 0.00 | 44 | 1012.9 |
| 20260905201240 | 97 | 26 | 3.0 | 6.0 | 0.00 | 0.00 | 0.00 | 46 | 1012.9 |
| 20260905200730 | 97 | 85 | 3.0 | 6.0 | 0.00 | 0.00 | 0.00 | 47 | 1012.9 |
| 20260905200221 | 97 | 90 | 2.0 | 6.0 | 0.00 | 0.00 | 0.00 | 48 | 1013.0 |
| 20260905200130 | 96 | 32 | 0.0 | 6.0 | 0.00 | 0.00 | 0.00 | 47 | 1010.9 |
| 20260905195710 | 97 | 32 | 2.0 | 7.0 | 0.00 | 0.00 | 0.00 | 45 | 1013.0 |
| 20260905195200 | 97 | 51 | 2.0 | 7.0 | 0.00 | 0.00 | 0.00 | 46 | 1013.0 |
| 20260905194652 | 97 | 53 | 2.0 | 6.0 | 0.00 | 0.00 | 0.00 | 47 | 1013.1 |
| 20260905194536 | 97 | 53 | 3.0 | 6.0 | 0.00 | 0.00 | 0.00 | 47 | 1010.9 |
| 20260905194144 | 97 | 121 | 2.0 | 6.0 | 0.00 | 0.00 | 0.00 | 47 | 1013.1 |
| 20260905193636 | 97 | 103 | 4.0 | 8.0 | 0.00 | 0.00 | 0.00 | 47 | 1013.2 |
| 20260905193126 | 97 | 104 | 4.0 | 8.0 | 0.00 | 0.00 | 0.00 | 46 | 1013.3 |
| 20260905193016 | 97 | 83 | 4.0 | 8.0 | 0.00 | 0.00 | 0.00 | 47 | 1011.1 |
| 20260905192111 | 97 | 111 | 5.0 | 9.0 | 0.00 | 0.00 | 0.00 | 48 | 1013.5 |
| 20260905191050 | 97 | 37 | 2.0 | 8.0 | 0.00 | 0.00 | 0.00 | 49 | 1013.5 |
| 20260905190541 | 97 | 13 | 2.0 | 7.0 | 0.00 | 0.00 | 0.00 | 50 | 1013.5 |
| 20260905190036 | 97 | 291 | 3.0 | 8.0 | 0.00 | 0.00 | 0.00 | 48 | 1013.7 |
| 20260905185523 | 97 | 281 | 4.0 | 8.0 | 0.00 | 0.00 | 0.00 | 47 | 1013.7 |
| 20260905185015 | 98 | 49 | 2.0 | 8.0 | 0.00 | 0.00 | 0.00 | 48 | 1013.8 |
| 20260905184510 | 97 | 70 | 2.0 | 6.0 | 0.00 | 0.00 | 0.00 | 49 | 1013.8 |
| 20260905183447 | 96 | 68 | 2.0 | 6.0 | 0.00 | 0.00 | 0.00 | 49 | 1013.9 |
| 20260905182431 | 96 | 26 | 3.0 | 7.0 | 0.00 | 0.00 | 0.00 | 47 | 1014.0 |
| 20260905181923 | 97 | 53 | 1.0 | 6.0 | 0.00 | 0.00 | 0.00 | 47 | 1014.1 |
| 20260905181412 | 97 | 95 | 0.0 | 2.0 | 0.00 | 0.00 | 0.00 | 47 | 1014.1 |
| 20260905180903 | 97 | 173 | 0.0 | 4.0 | 0.00 | 0.00 | 0.00 | 46 | 1014.1 |
| 20260905175848 | 96 | 173 | 1.0 | 4.0 | 0.00 | 0.00 | 0.00 | 51 | 1014.2 |
| 20260905175339 | 96 | 165 | 1.0 | 5.0 | 0.00 | 0.00 | 0.00 | 53 | 1014.2 |
| 20260905174321 | 96 | 194 | 1.0 | 5.0 | 0.00 | 0.00 | 0.00 | 52 | 1014.3 |
| 20260905173815 | 96 | 200 | 2.0 | 6.0 | 0.00 | 0.00 | 0.00 | 54 | 1014.3 |
| 20260905173308 | 96 | 220 | 1.0 | 4.0 | 0.00 | 0.00 | 0.00 | 54 | 1014.3 |
| 20260905173147 | 95 | 224 | 0.0 | 4.0 | 0.00 | 0.00 | 0.00 | 52 | 1012.2 |
| 20260905172758 | 96 | 192 | 1.0 | 5.0 | 0.00 | 0.00 | 0.00 | 52 | 1014.3 |
| 20260905172305 | 96 | 124 | 1.0 | 5.0 | 0.00 | 0.00 | 0.00 | 57 | 1014.3 |
| 20260905171742 | 95 | 197 | 1.0 | 4.0 | 0.00 | 0.00 | 0.00 | 54 | 1014.3 |
| 20260905171626 | 95 | 222 | 0.0 | 4.0 | 0.00 | 0.00 | 0.00 | 54 | 1012.2 |